Regional Weather Roundup
Issued by NWS

Home | Current Version | Previous Version | Text Only | Print | Product List | Glossary On
Versions: 1 2 3 4 5 6 7 8 9 10 11 12 13 14 15 16 17 18 19 20 21 22 23 24 25 26 27 28 29 30 31 32 33 34 35 36 37 38 39 40 41 42 43 44 45 46 47 48 49 50
000
ASUS45 KSLC 081010
RWRUT

UTAH REGIONAL WEATHER ROUNDUP
NATIONAL WEATHER SERVICE SALT LAKE CITY UT
300 AM MST THU DEC 08 2016

UTZ001>011-023>025-081100-

NORTHERN UTAH

CITY           SKY/WX    TMP DP  RH WIND       PRES   REMARKS
BRIGHAM CITY     N/A     15   9  76 NW6       30.33S WCI   6
HILL AFB       PTCLDY    13   3  63 E17       30.28S WCI  -4
LOGAN          CLEAR     10   6  84 NW3       30.34R
OGDEN          PTCLDY    14   5  67 SW3       30.29S
SALT LAKE CITY PTCLDY    21  11  65 S3        30.30S
TOOELE VALLEY  PTCLDY    16  12  86 S6        30.30F WCI   7
WENDOVER       CLOUDY    19   9  63 CALM      30.30S
HEBER CITY     CLOUDY    10   5  79 CALM      30.26S
WEST JORDAN    PTCLDY    19  15  82 CALM      30.30S

$$

UTZ011>015-024>027-081100-

CENTRAL/NORTHEAST UTAH

CITY           SKY/WX    TMP DP  RH WIND       PRES   REMARKS
PROVO AIRPORT  PTCLDY    19   8  62 S5        30.31S WCI  12
MOAB/CANYONLAN MOCLDY    20   5  52 SE5       30.30R WCI  13
DELTA          CLOUDY    18   7  62 CALM      30.26F
PRICE          PTCLDY     9  -7  48 CALM      30.25R
RICHFIELD      MOCLDY    16  10  79 CALM      30.29
ROOSEVELT      CLOUDY    14   5  67 CALM      30.35S
VERNAL         CLOUDY    14   2  58 NW6       30.32S WCI   5

$$

UTZ013>016-019>022-027-081100-

SOUTHERN UTAH

CITY           SKY/WX    TMP DP  RH WIND       PRES   REMARKS
BRYCE CANYON   NOT AVBL
CEDAR CITY     CLOUDY    19   8  62 CALM      30.21R
MILFORD        CLOUDY    17   7  64 CALM      30.23F
ST GEORGE      CLOUDY    30  10  43 E6        30.28S WCI  24
HANKSVILLE     MOCLDY    14   1  57 CALM      30.35R
KANAB          PTCLDY    27   7  43 NW15      30.27  WCI  15
BLANDING       PTCLDY    19   0  42 N8        30.32S WCI   9

$$

REGIONAL REPORTS     COLORADO/ARIZONA

CITY           SKY/WX    TMP DP  RH WIND       PRES   REMARKS
CRAIG, CO      CLOUDY    -8 -14  74 SW3       30.30F
GRAND JUNCTION CLOUDY    15   7  70 SE12      30.33R WCI   2
RIFLE, CO      CLOUDY     4  -1  80 CALM      30.34S
MONTROSE, CO   CLOUDY     9   3  77 SE5       30.33S WCI   1
CORTEZ, CO     CLOUDY     9   3  77 E5        30.27S WCI   1
COLORADO CITY  PTSUNNY   32  10  40 N7        30.24R WCI  26
PAGE, AZ       PTCLDY    28   3  34 W3        30.26R
GRAND CANYON   CLEAR     25   9  50 E6        30.19F WCI  18
KINGMAN, AZ    CLEAR     32   6  33 E6        30.18S WCI  26
FLAGSTAFF, AZ  CLEAR     17  14  88 CALM      30.19R

$$

REGIONAL REPORTS    NEVADA/IDAHO/WYOMING

CITY           SKY/WX    TMP DP  RH WIND       PRES   REMARKS
LAS VEGAS, NV  PTCLDY    37   7  28 S3        30.21R
ELY, NY        CLOUDY    17   7  64 N3        30.18R
ELKO, NV       CLOUDY    20  11  68 E6        30.17F WCI  12
POCATELLO, ID  CLOUDY    -6  -9  86 CALM      30.34R FOG
BURLEY, ID     CLEAR      7   3  84 E10       30.29S WCI  -8
FORT BRIDGER,    N/A     -2  -6  84 NW3       30.24S
EVANSTON, WY   CLOUDY     1  -9  62 E8        30.18S WCI -13
ROCK SPRINGS,  CLOUDY    -5 -10  79 E6        30.24R WCI -18
KEMMERER, WY     N/A     -8 -15  71 N9        30.20S WCI -25

$$



USA.gov is the U.S. government's official web portal to all federal, state and local government web resources and services.